STARLINK-3331 (50834 NORAD) Tracking and Keplerian Element Data

This shows tracking and keplerian element data for the satellite.

Feedback or suggestion? Click here.




ElementValue
Catalog50834
NameSTARLINK-3331
Epoch Orbit383
Epoch Day22.91667824
Epoch Year2022
RAAN119.7535
Inclination53.2175
Eccentricity0.0001131
Argument of Perigee56.9015
Mean Anonmoly261.5184
Mean Motion15.75340605
Decay Rate-0.00821489
L11 50834U 22001AH 22022.91667824 -.00821489 00000+0 -58709-2 0 9990
L22 50834 53.2175 119.7535 0001131 56.9015 261.5184 15.75340605 3835

Live tracking and technical data element details for STARLINK-3331 (NORAD 50834). STARLINK-3331 can be tracked NOW for your location showing map with azimuth and elevation plus other details from your city location.

Track the satellite on the map from your city or location and see movement details for azimuth, elevation, latitude, longitude, range, height, and movement on the map or in text.







IsCatalogInMostPopularTable: catalog: 50834, numindb: 5
Update: records affected: 1



GetName: 50834 STARLINK-3331

Hit Count: updated at: Mon, 24 Jan 2022 01:25:56 GMT